{"data":{"norad_id":66583,"intl_designator":"2025-268AC","name":"STARLINK-35941","alt_names":[],"object_type":"PAYLOAD","status":"ACTIVE","operator":null,"country":"US","launch_date":"2025-11-21","launch_site_code":"AFETR","launch_vehicle":null,"mission":null,"orbit_class":"UNKNOWN","rcs_meters":null,"size_class":null,"mass_kg":null,"dimensions":null,"purposes":["comms"],"wikipedia_slug":null,"has_3d_model":false,"image_url":null,"decayed_at":null,"tle_current":{"epoch":"2026-05-25T01:29:15.757152Z","epoch_age_seconds":76645,"freshness":"FRESH","line1":"1 66583U 25268AC  26145.06198793  .00013419  00000+0  49599-3 0  9998","line2":"2 66583  42.9999 275.4220 0002226 272.1885  87.8712 15.27596640 29648","mean_motion":15.2759664,"eccentricity":0.0002226,"inclination_deg":42.9999,"raan_deg":275.422,"arg_perigee_deg":272.1885,"mean_anomaly_deg":87.8712,"bstar":0.00049599,"rev_number":2964,"period_min":94.265721872758,"perigee_km":481.47198141196,"apogee_km":484.52655927952,"semimajor_km":6861.1362703457,"source":"CELESTRAK","updated_at":"2026-05-25T13:38:21.285623Z"}}}